FW0689 Weather Reports


Display with metric or nautical units.
time (UTC)temp
F
wind
direction
speed
MPH
gust
MPH
rain 1hr
in
rain 24hr
in
rain mn
in
humidity
%
barometer
mb
20260503022515 57 114 0.0 0.0 0.00 0.00 0.00 35 1016.9
20260503021514 57 152 0.0 0.0 0.00 0.00 0.00 34 1017.1
20260503020514 58 118 0.0 0.0 0.00 0.00 0.00 34 1017.0
20260503015516 58 112 0.0 0.0 0.00 0.00 0.00 34 1017.1
20260503014516 57 189 0.0 0.0 0.00 0.00 0.00 34 1017.7
20260503012513 57 183 0.0 0.0 0.00 0.00 0.00 35 1017.3
20260503011517 57 112 0.0 0.0 0.00 0.00 0.00 35 1017.3
20260503010614 57 180 0.0 0.0 0.00 0.00 0.00 35 1017.3
20260503005613 57 112 0.0 0.0 0.00 0.00 0.00 35 1017.1
20260503004615 58 112 0.0 0.0 0.00 0.00 0.00 35 1017.3
20260503003615 58 112 0.0 0.0 0.00 0.00 0.00 35 1017.3
20260503002613 58 112 0.0 0.0 0.00 0.00 0.00 34 1017.6
20260503001613 58 112 0.0 0.0 0.00 0.00 0.00 34 1017.8
20260503000617 58 202 0.0 0.0 0.00 0.00 0.00 35 1018.3
20260502233715 59 189 0.0 0.0 0.00 0.00 0.00 34 1018.8
20260502232717 59 191 0.0 0.0 0.00 0.00 0.00 34 1018.9
20260502231714 58 189 0.0 0.0 0.00 0.00 0.00 33 1019.0
20260502230714 58 192 0.0 0.0 0.00 0.00 0.00 34 1019.0
20260502225714 58 202 0.0 0.0 0.00 0.00 0.00 35 1018.6
20260502223714 59 112 0.0 0.0 0.00 0.00 0.00 35 1018.1
20260502222715 59 112 0.0 0.0 0.00 0.00 0.00 35 1018.3
20260502221715 60 202 0.0 0.0 0.00 0.00 0.00 35 1018.4
20260502220714 61 360 0.0 0.0 0.00 0.00 0.00 35 1018.2
20260502215811 61 90 0.0 0.0 0.00 0.00 0.00 34 1018.2
20260502214812 61 22 0.0 0.0 0.00 0.00 0.00 35 1018.7
20260502213812 61 22 0.0 0.0 0.00 0.00 0.00 34 1019.0
20260502212812 61 22 0.0 0.0 0.00 0.00 0.00 34 1019.2
20260502211910 61 55 0.0 0.0 0.00 0.00 0.00 34 1019.4
20260502210911 60 110 0.0 0.0 0.00 0.00 0.00 34 1019.6
20260502205911 59 175 0.0 0.0 0.00 0.00 0.00 34 1019.9
20260502204911 60 360 0.0 0.0 0.00 0.00 0.00 34 1019.0
20260502203927 60 360 0.0 0.0 0.00 0.00 0.00 35 1019.0
20260502203011 61 360 0.0 0.0 0.00 0.00 0.00 35 1019.0
20260502202013 61 337 0.0 0.0 0.00 0.00 0.00 35 1019.1
20260502201012 62 337 0.0 0.0 0.00 0.00 0.00 35 1019.3
20260502200012 62 337 0.0 0.0 0.00 0.00 0.00 35 1019.3
20260502195111 62 337 0.0 0.0 0.00 0.00 0.00 35 1019.4
20260502194112 63 337 0.0 0.0 0.00 0.00 0.00 35 1019.4
20260502193211 63 315 0.0 0.0 0.00 0.00 0.00 35 1019.2
20260502192212 64 337 0.0 0.0 0.00 0.00 0.00 35 1019.1
20260502191211 65 336 0.0 0.0 0.00 0.00 0.00 36 1019.0
20260502190212 65 331 0.0 0.0 0.00 0.00 0.00 38 1018.9
20260502185210 66 316 0.0 0.0 0.00 0.00 0.00 42 1019.0
20260502184213 67 316 0.0 0.0 0.00 0.00 0.00 45 1018.8
20260502183212 68 337 0.0 0.0 0.00 0.00 0.00 47 1018.9
20260502182210 69 318 0.0 0.0 0.00 0.00 0.00 48 1018.9
20260502181211 70 312 0.0 0.0 0.00 0.00 0.00 49 1018.7
20260502170509 72 255 0.0 0.0 0.00 0.00 0.00 48 1019.0
20260502162613 73 291 0.0 0.0 0.00 0.00 0.00 47 1019.4
20260502160612 73 263 0.0 0.0 0.00 0.00 0.00 46 1019.6
20260502151712 72 260 0.0 0.0 0.00 0.00 0.00 47 1020.1
20260502150811 73 236 0.0 0.0 0.00 0.00 0.00 47 1020.2
20260502121012 73 220 0.0 0.0 0.00 0.00 0.00 43 1021.5
20260502115010 73 227 0.0 0.0 0.00 0.00 0.00 42 1021.6
20260502114012 73 241 0.0 0.0 0.00 0.00 0.00 42 1021.8
20260502113012 72 248 0.0 0.0 0.00 0.00 0.00 42 1021.8
20260502112012 72 222 0.0 0.0 0.00 0.00 0.00 42 1021.9
20260502111028 72 222 0.0 0.0 0.00 0.00 0.00 42 1021.9
20260502105011 72 189 0.0 0.0 0.00 0.00 0.00 40 1022.0
20260502104109 72 226 0.0 0.0 0.00 0.00 0.00 40 1022.1
20260502103111 71 182 0.0 0.0 0.00 0.00 0.00 40 1022.2
20260502102113 70 204 0.0 0.0 0.00 0.00 0.00 40 1022.4
20260502101211 70 251 0.0 0.0 0.00 0.00 0.00 40 1022.4
20260502100213 70 229 0.0 0.0 0.00 0.00 0.00 39 1022.7
20260502091310 66 235 0.0 0.0 0.00 0.00 0.00 41 1022.9
20260502070813 61 201 0.0 0.0 0.00 0.00 0.00 45 1023.3
20260502065910 60 197 0.0 0.0 0.00 0.00 0.00 44 1023.5
20260502064911 59 196 0.0 0.0 0.00 0.00 0.00 44 1023.5
20260502064011 59 171 0.0 0.0 0.00 0.00 0.00 43 1023.5
20260502063110 58 160 0.0 0.0 0.00 0.00 0.00 42 1023.4
20260502062112 57 152 0.0 0.0 0.00 0.00 0.00 41 1023.5
20260502061211 56 132 0.0 0.0 0.00 0.00 0.00 41 1023.5
20260502060211 54 180 0.0 0.0 0.00 0.00 0.00 40 1023.6
20260502055212 53 114 0.0 0.0 0.00 0.00 0.00 40 1023.7
20260502054212 51 165 0.0 0.0 0.00 0.00 0.00 40 1023.7
20260502053310 50 119 0.0 0.0 0.00 0.00 0.00 40 1023.6
20260502051311 47 112 0.0 0.0 0.00 0.00 0.00 40 1023.5
20260502050311 46 112 0.0 0.0 0.00 0.00 0.00 41 1023.5
20260502044409 46 112 0.0 0.0 0.00 0.00 0.00 41 1023.5
20260502041411 45 112 0.0 0.0 0.00 0.00 0.00 42 1023.5
20260502035411 46 112 0.0 0.0 0.00 0.00 0.00 42 1023.7
20260502034412 46 112 0.0 0.0 0.00 0.00 0.00 42 1023.8
20260502033511 46 112 0.0 0.0 0.00 0.00 0.00 42 1023.8
20260502032511 46 112 0.0 0.0 0.00 0.00 0.00 42 1023.8
20260502031511 46 112 0.0 0.0 0.00 0.00 0.00 42 1023.8
20260502030509 46 112 0.0 0.0 0.00 0.00 0.00 42 1023.9
20260502025512 46 112 0.0 0.0 0.00 0.00 0.00 42 1024.0
20260502024512 46 112 0.0 0.0 0.00 0.00 0.00 42 1024.0
20260502023509 46 112 0.0 0.0 0.00 0.00 0.00 41 1024.0